Anaktuvuk Pass, AK

10:44 PM AKDT on May 28, 2017 (GMT -0800)
Anaktuvuk Pass

Weather History for PAKP - March, 2014

Change the Weather History Date:

Monday, March 24, 2014

  Actual Average Record
Temperature  
Mean Temperature 10 °F -  
Max Temperature 19 °F -1 °F 30 °F (1998)
Min Temperature 0 °F -13 °F -34 °F (2004)
Degree Days  
Heating Degree Days 56    
Moisture  
Dew Point -3 °F    
Average Humidity 59    
Maximum Humidity 72    
Minimum Humidity 49    
Precipitation  
Precipitation 0.00 in - - ()
Sea Level Pressure  
Sea Level Pressure 30.35 in    
Wind  
Wind Speed 2 mph (SSW)    
Max Wind Speed 8 mph    
Max Gust Speed -    
Visibility 10 miles    
Events      
Averages and records for this station are not official NWS values.
T = Trace of Precipitation, MM = Missing Value Source: NWS Daily Summary

Daily Weather History Graph

Daily Weather History Graph

Search for Another Location

Airport or City:

Trip Planner

Search our weather history database for the weather conditions in past years. The results will help you decide how hot, cold, wet, or windy it might be!

Date:

Astronomy

Mar. 24, 2014 Rise Set
Actual Time 7:48 AM AKDT 8:39 PM AKDT
Civil Twilight 6:51 AM AKDT 9:37 PM AKDT
Nautical Twilight 5:38 AM AKDT 10:51 PM AKDT
Astronomical Twilight 3:59 AM AKDT 12:34 AM AKDT
Moon 6:22 AM AKDT (3/24) 11:23 AM AKDT (3/24)
Length of Visible Light 14h 45m
Length of Day
12h 51m
Last Quarter, 41% of the Moon is Illuminated
Mar 24
Last Quarter
Mar 30
New
Apr 7
First Quarter
Apr 14
Full
Apr 21
Last Quarter

Hourly Weather History & Observations

Time (AKDT) Temp. Windchill Dew Point Humidity Pressure Visibility Wind Dir Wind Speed Gust Speed Precip Events Conditions
12:16 AM 5.0 °F - -5.8 °F 61% 30.43 in 10.0 mi Calm Calm - N/A   Clear
12:36 AM 3.2 °F - -5.8 °F 66% 30.43 in 10.0 mi Calm Calm - N/A   Clear
12:56 AM 3.2 °F - -5.8 °F 66% 30.43 in 10.0 mi Calm Calm - N/A   Clear
1:16 AM 3.2 °F - -5.8 °F 66% 30.42 in 10.0 mi Calm Calm - N/A   Clear
1:36 AM 3.2 °F - -5.8 °F 66% 30.42 in 10.0 mi Calm Calm - N/A   Clear
1:56 AM 3.2 °F -4.2 °F -7.6 °F 61% 30.42 in 10.0 mi WSW 3.5 mph - N/A   Clear
2:16 AM 3.2 °F - -5.8 °F 66% 30.42 in 10.0 mi Calm Calm - N/A   Clear
2:36 AM 1.4 °F - -7.6 °F 66% 30.42 in 10.0 mi Calm Calm - N/A   Clear
2:56 AM 1.4 °F - -7.6 °F 66% 30.42 in 10.0 mi Calm Calm - N/A   Clear
3:16 AM 3.2 °F - -5.8 °F 66% 30.41 in 10.0 mi Calm Calm - N/A   Clear
3:36 AM 3.2 °F -4.2 °F -7.6 °F 61% 30.41 in 10.0 mi South 3.5 mph - N/A   Clear
3:56 AM 1.4 °F -6.2 °F -7.6 °F 66% 30.41 in 10.0 mi SSW 3.5 mph - N/A   Clear
4:16 AM 1.4 °F -6.2 °F -9.4 °F 61% 30.41 in 10.0 mi SW 3.5 mph - N/A   Clear
4:36 AM 1.4 °F - -7.6 °F 66% 30.41 in 10.0 mi Calm Calm - N/A   Clear
4:56 AM -0.4 °F - -9.4 °F 66% 30.40 in 10.0 mi Calm Calm - N/A   Clear
5:16 AM 1.4 °F -6.2 °F -7.6 °F 66% 30.40 in 10.0 mi WSW 3.5 mph - N/A   Clear
5:36 AM -0.4 °F - -9.4 °F 66% 30.40 in 10.0 mi Calm Calm - N/A   Clear
5:56 AM 1.4 °F -6.2 °F -7.6 °F 66% 30.40 in 10.0 mi SW 3.5 mph - N/A   Clear
6:16 AM -0.4 °F - -9.4 °F 66% 30.40 in 10.0 mi Calm Calm - N/A   Clear
6:36 AM 1.4 °F - -7.6 °F 66% 30.39 in 10.0 mi Calm Calm - N/A   Clear
6:56 AM 1.4 °F - -9.4 °F 61% 30.39 in 10.0 mi Calm Calm - N/A   Clear
7:16 AM 1.4 °F -6.2 °F -9.4 °F 61% 30.39 in 10.0 mi SW 3.5 mph - N/A   Clear
7:36 AM -0.4 °F - -9.4 °F 66% 30.39 in 10.0 mi Calm Calm - N/A   Clear
7:56 AM -0.4 °F - -9.4 °F 66% 30.39 in 10.0 mi Calm Calm - N/A   Clear
8:16 AM -0.4 °F -8.3 °F -9.4 °F 66% 30.39 in 10.0 mi WSW 3.5 mph - N/A   Clear
8:36 AM 1.4 °F - -7.6 °F 66% 30.39 in 10.0 mi Calm Calm - N/A   Clear
8:56 AM -0.4 °F - -11.2 °F 60% 30.39 in 10.0 mi Calm Calm - N/A   Clear
9:16 AM -0.4 °F - -7.6 °F 72% 30.38 in 10.0 mi Calm Calm - N/A   Clear
9:36 AM 1.4 °F - -7.6 °F 66% 30.38 in 10.0 mi Calm Calm - N/A   Clear
9:56 AM 3.2 °F - -7.6 °F 61% 30.38 in 10.0 mi Calm Calm - N/A   Clear
10:16 AM 3.2 °F -4.2 °F -7.6 °F 61% 30.38 in 10.0 mi SSW 3.5 mph - N/A   Clear
10:36 AM 5.0 °F -4.1 °F -5.8 °F 61% 30.37 in 10.0 mi SSW 4.6 mph - N/A   Clear
10:56 AM 6.8 °F -0.1 °F -5.8 °F 56% 30.37 in 10.0 mi SSW 3.5 mph - N/A   Clear
11:16 AM 6.8 °F - -4.0 °F 61% 30.37 in 10.0 mi Calm Calm - N/A   Clear
11:36 AM 8.6 °F - -2.2 °F 62% 30.36 in 10.0 mi Calm Calm - N/A   Clear
11:56 AM 8.6 °F -1.3 °F -5.8 °F 52% 30.36 in 10.0 mi SSW 5.8 mph - N/A   Clear
12:16 PM 10.4 °F 2.2 °F -2.2 °F 57% 30.36 in 10.0 mi SSW 4.6 mph - N/A   Clear
12:36 PM 10.4 °F 0.8 °F -2.2 °F 57% 30.36 in 10.0 mi SSW 5.8 mph - N/A   Clear
12:56 PM 12.2 °F 4.3 °F -2.2 °F 53% 30.36 in 10.0 mi SW 4.6 mph - N/A   Clear
1:16 PM 12.2 °F 6.1 °F -0.4 °F 57% 30.35 in 10.0 mi SW 3.5 mph - N/A   Clear
1:36 PM 14.0 °F 8.2 °F -2.2 °F 49% 30.35 in 10.0 mi SSW 3.5 mph - N/A   Clear
1:56 PM 15.8 °F 8.6 °F -0.4 °F 49% 30.35 in 10.0 mi SSW 4.6 mph - N/A   Clear
2:16 PM 15.8 °F 10.2 °F -0.4 °F 49% 30.34 in 9.0 mi SSW 3.5 mph - N/A   Clear
2:36 PM 15.8 °F 10.2 °F 1.4 °F 53% 30.34 in 10.0 mi SSW 3.5 mph - N/A   Clear
2:56 PM 15.8 °F 7.2 °F 1.4 °F 53% 30.33 in 10.0 mi SSW 5.8 mph - N/A   Clear
3:16 PM 17.6 °F 9.3 °F 1.4 °F 49% 30.33 in 8.0 mi SSW 5.8 mph - N/A   Clear
3:36 PM 17.6 °F 9.3 °F 1.4 °F 49% 30.33 in 10.0 mi South 5.8 mph - N/A   Clear
3:56 PM 17.6 °F 9.3 °F 3.2 °F 53% 30.33 in 10.0 mi SSW 5.8 mph - N/A   Clear
4:16 PM 19.4 °F 9.5 °F 3.2 °F 49% 30.32 in 10.0 mi South 8.1 mph - N/A   Clear
4:36 PM 19.4 °F 9.5 °F 3.2 °F 49% 30.32 in 10.0 mi SSW 8.1 mph - N/A   Clear
4:56 PM 17.6 °F 9.3 °F 3.2 °F 53% 30.31 in 10.0 mi SW 5.8 mph - N/A   Clear
5:16 PM 17.6 °F 8.2 °F 3.2 °F 53% 30.31 in 10.0 mi SSW 6.9 mph - N/A   Clear
5:36 PM 19.4 °F 10.4 °F 5.0 °F 54% 30.30 in 10.0 mi SW 6.9 mph - N/A   Clear
5:56 PM 19.4 °F 12.8 °F 3.2 °F 49% 30.30 in 10.0 mi SSW 4.6 mph - N/A   Clear
6:16 PM 19.4 °F 11.5 °F 3.2 °F 49% 30.30 in 10.0 mi SSW 5.8 mph - N/A   Clear
6:36 PM 19.4 °F 10.4 °F 5.0 °F 54% 30.29 in 10.0 mi SSW 6.9 mph - N/A   Clear
6:56 PM 19.4 °F - 5.0 °F 54% 30.29 in 10.0 mi Calm Calm - N/A   Clear
7:16 PM 17.6 °F - 1.4 °F 49% 30.29 in 10.0 mi Calm Calm - N/A   Clear
7:36 PM 14.0 °F 2.9 °F 1.4 °F 57% 30.28 in 10.0 mi South 8.1 mph - N/A   Clear
7:56 PM 14.0 °F 3.9 °F 1.4 °F 57% 30.28 in 10.0 mi South 6.9 mph - N/A   Clear
8:16 PM 14.0 °F 5.1 °F -0.4 °F 53% 30.28 in 10.0 mi SSW 5.8 mph - N/A   Clear
8:36 PM 12.2 °F 6.1 °F -0.4 °F 57% 30.28 in 10.0 mi South 3.5 mph - N/A   Clear
8:56 PM 10.4 °F 0.8 °F -0.4 °F 62% 30.28 in 10.0 mi South 5.8 mph - N/A   Clear
9:16 PM 10.4 °F - -0.4 °F 62% 30.27 in 10.0 mi Calm Calm - N/A   Clear
9:36 PM 12.2 °F - -0.4 °F 57% 30.27 in 10.0 mi Calm Calm - N/A   Clear
9:56 PM 10.4 °F 2.2 °F -2.2 °F 57% 30.26 in 10.0 mi South 4.6 mph - N/A   Clear
10:16 PM 8.6 °F 0.1 °F -2.2 °F 62% 30.25 in 10.0 mi SSW 4.6 mph - N/A   Clear
10:36 PM 8.6 °F - -2.2 °F 62% 30.25 in 10.0 mi Calm Calm - N/A   Clear
10:56 PM 8.6 °F - -2.2 °F 62% 30.25 in 10.0 mi Calm Calm - N/A   Clear
11:16 PM 8.6 °F - -2.2 °F 62% 30.25 in 10.0 mi Calm Calm - N/A   Clear
11:36 PM 6.8 °F -2.0 °F -2.2 °F 67% 30.25 in 10.0 mi SSW 4.6 mph - N/A   Clear
11:56 PM 6.8 °F - -2.2 °F 67% 30.25 in 10.0 mi Calm Calm - N/A   Clear